GW1213 Weather Reports


time (UTC)temp
C
wind
direction
speed
KPH
gust
KPH
rain 1hr
cm
rain 24hr
cm
rain mn
cm
humidity
%
barometer
mb
20260510043107 13 0 0.0 0.0 0.00 0.00 0.00 88 1009.7
20260510042537 13 0 0.0 0.0 0.00 0.00 0.00 88 1009.7
20260510042035 13 0 0.0 0.0 0.00 0.00 0.00 88 1009.7
20260510041556 13 0 0.0 0.0 0.00 0.00 0.00 89 1009.7
20260510041035 14 0 0.0 0.0 0.00 0.00 0.00 89 1009.7
20260510040536 14 0 0.0 0.0 0.00 0.00 0.00 89 1009.6
20260510040059 14 0 0.0 0.0 0.00 0.00 0.00 89 1009.6
20260510035535 14 0 0.0 0.0 0.00 0.00 0.00 88 1009.6
20260510035035 14 0 0.0 0.0 0.00 0.00 0.00 87 1009.5
20260510034549 14 0 0.0 0.0 0.00 0.00 0.00 87 1009.5
20260510034035 14 0 0.0 0.0 0.00 0.00 0.00 86 1009.6
20260510033534 14 0 0.0 0.0 0.00 0.00 0.00 86 1009.4
20260510033049 14 0 0.0 0.0 0.00 0.00 0.00 86 1009.4
20260510032536 14 0 0.0 0.0 0.00 0.00 0.00 86 1009.4
20260510032036 14 0 0.0 0.0 0.00 0.00 0.00 86 1009.4
20260510031554 14 0 0.0 0.0 0.00 0.00 0.00 86 1009.3
20260510031034 15 0 0.0 0.0 0.00 0.00 0.00 85 1009.3
20260510030535 15 0 0.0 0.0 0.00 0.00 0.00 85 1009.2
20260510030052 15 0 0.0 0.0 0.00 0.00 0.00 84 1009.2
20260510025536 15 0 0.0 0.0 0.00 0.00 0.00 84 1009.2
20260510025035 15 0 0.0 0.0 0.00 0.00 0.00 84 1009.1
20260510024544 15 0 0.0 0.0 0.00 0.00 0.00 84 1009.1
20260510024035 15 0 0.0 0.0 0.00 0.00 0.00 84 1009.0
20260510023537 15 0 0.0 0.0 0.00 0.00 0.00 83 1009.0
20260510023049 15 0 0.0 0.0 0.00 0.00 0.00 82 1008.9
20260510022535 16 0 0.0 0.0 0.00 0.00 0.00 82 1008.9
20260510022034 16 0 0.0 0.0 0.00 0.00 0.00 81 1008.9
20260510021549 16 0 0.0 0.0 0.00 0.00 0.00 81 1008.8
20260510021034 16 0 0.0 0.0 0.00 0.00 0.00 81 1008.8
20260510020537 16 0 0.0 0.0 0.00 0.00 0.00 81 1008.7
20260510020047 16 0 0.0 0.0 0.00 0.00 0.00 79 1008.7
20260510015535 16 0 0.0 0.0 0.00 0.00 0.00 76 1008.7
20260510015036 16 0 0.0 0.0 0.00 0.00 0.00 76 1008.6
20260510014547 17 0 0.0 0.0 0.00 0.00 0.00 76 1008.5
20260510014035 17 0 0.0 0.0 0.00 0.00 0.00 74 1008.3
20260510013535 17 0 0.0 0.0 0.00 0.00 0.00 75 1008.3
20260510013045 17 0 0.0 0.0 0.00 0.00 0.00 75 1008.3
20260510012535 17 0 0.0 0.0 0.00 0.00 0.00 74 1008.2
20260510012036 17 0 0.0 0.0 0.00 0.00 0.00 73 1008.1
20260510011554 18 0 0.0 0.0 0.00 0.00 0.00 73 1008.0
20260510011033 18 0 0.0 0.0 0.00 0.00 0.00 72 1008.0
20260510010534 18 0 0.0 0.0 0.00 0.00 0.00 71 1008.1
20260510010049 19 0 0.0 0.0 0.00 0.00 0.00 69 1008.0
20260510005535 19 0 0.0 0.0 0.00 0.00 0.00 66 1008.0
20260510005034 20 0 0.0 0.0 0.00 0.00 0.00 64 1007.9
20260510004550 20 0 0.0 0.0 0.00 0.00 0.00 62 1007.8
20260510004034 20 0 0.0 0.0 0.00 0.00 0.00 62 1007.7
20260510003536 20 0 0.0 0.0 0.00 0.00 0.00 62 1007.6
20260510003049 21 0 0.0 0.0 0.00 0.00 0.00 63 1007.6
20260510002533 21 0 0.0 0.0 0.00 0.00 0.00 59 1007.6
20260510002036 22 0 0.0 0.0 0.00 0.00 0.00 57 1007.5
20260510001551 22 0 0.0 0.0 0.00 0.00 0.00 55 1007.6
20260510001035 22 0 0.0 4.8 0.00 0.00 0.00 54 1007.5
20260510000535 22 0 0.0 6.4 0.00 0.00 0.00 52 1007.6
20260510000051 22 136 0.0 6.4 0.00 0.00 0.00 50 1007.4
20260509235535 23 0 0.0 3.2 0.00 0.00 0.00 50 1007.3
20260509235035 23 0 0.0 8.0 0.00 0.00 0.00 49 1007.3
20260509234547 23 170 0.0 9.7 0.00 0.00 0.00 48 1007.3
20260509234035 23 0 0.0 9.7 0.00 0.00 0.00 48 1007.3
20260509233535 23 0 1.6 9.7 0.00 0.00 0.00 48 1007.2
20260509233053 23 181 1.6 8.0 0.00 0.00 0.00 47 1007.2
20260509232535 23 0 1.6 8.0 0.00 0.00 0.00 47 1007.1
20260509232035 23 163 0.0 8.0 0.00 0.00 0.00 47 1007.2
20260509231550 24 144 1.6 6.4 0.00 0.00 0.00 46 1007.2
20260509231034 24 0 1.6 6.4 0.00 0.00 0.00 46 1007.2
20260509230537 24 0 1.6 11.3 0.00 0.00 0.00 46 1007.2
20260509230048 24 204 1.6 11.3 0.00 0.00 0.00 46 1007.2
20260509225535 24 238 1.6 11.3 0.00 0.00 0.00 46 1007.2
20260509225037 24 0 1.6 11.3 0.00 0.00 0.00 46 1007.1
20260509224557 24 184 1.6 11.3 0.00 0.00 0.00 45 1007.0
20260509224034 24 155 3.2 11.3 0.00 0.00 0.00 45 1007.0
20260509223535 25 241 3.2 8.0 0.00 0.00 0.00 45 1007.0
20260509223059 25 251 1.6 12.9 0.00 0.00 0.00 45 1007.1
20260509222538 24 0 1.6 12.9 0.00 0.00 0.00 45 1007.1
20260509222036 24 234 3.2 11.3 0.00 0.00 0.00 45 1007.2
20260509221602 24 213 1.6 11.3 0.00 0.00 0.00 45 1007.2
20260509221034 24 273 1.6 12.9 0.00 0.00 0.00 45 1007.2
20260509220534 24 244 3.2 12.9 0.00 0.00 0.00 45 1007.2
20260509220053 24 236 3.2 12.9 0.00 0.00 0.00 44 1007.1
20260509215534 24 137 4.8 14.5 0.00 0.00 0.00 44 1007.1
20260509215035 24 248 4.8 14.5 0.00 0.00 0.00 45 1007.2
20260509214554 24 235 1.6 14.5 0.00 0.00 0.00 46 1007.1
20260509214037 24 270 1.6 14.5 0.00 0.00 0.00 46 1007.2
20260509213535 24 167 6.4 14.5 0.00 0.00 0.00 45 1007.2
20260509213054 24 219 3.2 12.9 0.00 0.00 0.00 45 1007.2
20260509212534 24 264 4.8 19.3 0.00 0.00 0.00 45 1007.2
20260509212034 25 196 4.8 19.3 0.00 0.00 0.00 44 1007.1
20260509211547 25 201 4.8 16.1 0.00 0.00 0.00 44 1007.1
20260509211036 25 211 1.6 14.5 0.00 0.00 0.00 45 1007.0
20260509210537 25 242 3.2 14.5 0.00 0.00 0.00 43 1007.0
20260509205535 25 196 1.6 16.1 0.00 0.00 0.00 45 1007.0
20260509205035 25 63 3.2 16.1 0.00 0.00 0.00 46 1006.8
20260509204557 25 180 6.4 12.9 0.00 0.00 0.00 44 1006.9
20260509204035 26 221 1.6 11.3 0.00 0.00 0.00 44 1006.9
20260509203539 25 224 1.6 12.9 0.00 0.00 0.00 45 1006.9
20260509203056 25 248 3.2 16.1 0.00 0.00 0.00 45 1006.9
20260509202536 25 275 4.8 16.1 0.00 0.00 0.00 46 1006.9
20260509202035 25 234 3.2 12.9 0.00 0.00 0.00 48 1006.9
20260509201556 24 292 1.6 16.1 0.00 0.00 0.00 49 1007.0
20260509201035 24 155 3.2 17.7 0.00 0.00 0.00 49 1007.1
20260509200534 24 146 3.2 17.7 0.00 0.00 0.00 49 1007.2
20260509200059 24 241 4.8 14.5 0.00 0.00 0.00 48 1007.3
20260509195536 24 182 1.6 12.9 0.00 0.00 0.00 49 1007.4
20260509195034 24 269 4.8 12.9 0.00 0.00 0.00 47 1007.4
20260509194552 25 268 1.6 12.9 0.00 0.00 0.00 48 1007.4
20260509194037 24 0 1.6 12.9 0.00 0.00 0.00 49 1007.4
20260509193536 24 0 0.0 11.3 0.00 0.00 0.00 51 1007.7
20260509193047 23 242 3.2 14.5 0.00 0.00 0.00 52 1007.7
20260509192535 23 260 4.8 14.5 0.00 0.00 0.00 52 1007.9
20260509192035 23 276 1.6 11.3 0.00 0.00 0.00 55 1008.0
20260509191550 22 242 3.2 11.3 0.00 0.00 0.00 55 1008.1
20260509191037 22 246 0.0 9.7 0.00 0.00 0.00 54 1008.2
20260509190534 22 171 3.2 9.7 0.00 0.00 0.00 54 1008.2
20260509185535 23 279 3.2 11.3 0.00 0.00 0.00 53 1008.4
20260509185035 23 0 0.0 14.5 0.00 0.00 0.00 55 1008.4
20260509184545 23 271 3.2 14.5 0.00 0.00 0.00 54 1008.5
20260509184036 22 246 3.2 12.9 0.00 0.00 0.00 56 1008.5
20260509183536 22 263 1.6 14.5 0.00 0.00 0.00 56 1008.6
20260509183053 22 260 4.8 14.5 0.00 0.00 0.00 55 1008.8
20260509182534 22 242 3.2 14.5 0.00 0.00 0.00 55 1008.8
20260509182034 22 270 4.8 12.9 0.00 0.00 0.00 54 1008.8
20260509181559 22 132 3.2 9.7 0.00 0.00 0.00 54 1008.9
20260509181035 22 218 1.6 9.7 0.00 0.00 0.00 54 1008.9
20260509180535 22 248 3.2 9.7 0.00 0.00 0.00 54 1008.9
20260509180059 22 260 3.2 9.7 0.00 0.00 0.00 54 1009.1
20260509175535 22 182 0.0 16.1 0.00 0.00 0.00 54 1009.0
20260509175035 22 257 0.0 16.1 0.00 0.00 0.00 54 1009.1
20260509174549 22 230 3.2 12.9 0.00 0.00 0.00 54 1009.2
20260509174034 22 157 3.2 12.9 0.00 0.00 0.00 55 1009.1
20260509173535 22 265 3.2 16.1 0.00 0.00 0.00 55 1009.2
20260509173049 22 5 1.6 16.1 0.00 0.00 0.00 55 1009.2
20260509172536 22 217 3.2 16.1 0.00 0.00 0.00 54 1009.3
20260509172035 22 279 6.4 16.1 0.00 0.00 0.00 56 1009.4
20260509171548 22 257 6.4 19.3 0.00 0.00 0.00 56 1009.4
20260509171035 21 127 6.4 19.3 0.00 0.00 0.00 57 1009.5
20260509170534 21 213 3.2 11.3 0.00 0.00 0.00 58 1009.6
20260509170047 21 242 0.0 16.1 0.00 0.00 0.00 58 1009.5
20260509165534 21 237 4.8 17.7 0.00 0.00 0.00 57 1009.6
20260509165038 21 213 3.2 19.3 0.00 0.00 0.00 57 1009.7
20260509164550 21 247 9.7 19.3 0.00 0.00 0.00 56 1009.6
20260509164035 21 232 3.2 14.5 0.00 0.00 0.00 56 1009.7
20260509163537 21 249 4.8 16.1 0.00 0.00 0.00 55 1009.6
20260509163053 21 275 6.4 16.1 0.00 0.00 0.00 55 1009.6
20260509162534 21 230 4.8 14.5 0.00 0.00 0.00 55 1009.6
20260509162035 21 253 6.4 19.3 0.00 0.00 0.00 55 1009.7
20260509161557 21 184 6.4 19.3 0.00 0.00 0.00 54 1009.7
20260509161034 21 229 6.4 19.3 0.00 0.00 0.00 54 1009.6
20260509160535 21 242 3.2 24.1 0.00 0.00 0.00 54 1009.7
20260509160051 21 282 6.4 24.1 0.00 0.00 0.00 53 1009.7
20260509155535 21 246 6.4 24.1 0.00 0.00 0.00 53 1009.8
20260509155034 21 339 4.8 19.3 0.00 0.00 0.00 54 1009.7
20260509154553 21 254 4.8 17.7 0.00 0.00 0.00 54 1009.9
20260509154034 21 211 6.4 17.7 0.00 0.00 0.00 55 1009.8
20260509153537 21 205 4.8 17.7 0.00 0.00 0.00 54 1009.8
20260509153053 21 141 6.4 22.5 0.00 0.00 0.00 53 1010.0
20260509152534 21 94 4.8 22.5 0.00 0.00 0.00 55 1010.0
20260509152037 21 201 6.4 17.7 0.00 0.00 0.00 55 1010.1
20260509151550 21 139 6.4 12.9 0.00 0.00 0.00 56 1010.1
20260509151036 21 217 4.8 16.1 0.00 0.00 0.00 57 1009.9
20260509150539 20 39 4.8 17.7 0.00 0.00 0.00 57 1009.9
20260509150052 20 167 3.2 17.7 0.00 0.00 0.00 57 1009.9
20260509145534 20 239 6.4 17.7 0.00 0.00 0.00 58 1010.1
20260509145034 20 109 3.2 14.5 0.00 0.00 0.00 60 1010.2
20260509144547 20 155 4.8 22.5 0.00 0.00 0.00 59 1010.3
20260509144034 19 285 3.2 22.5 0.00 0.00 0.00 59 1010.4
20260509143535 19 196 6.4 17.7 0.00 0.00 0.00 58 1010.5
20260509143047 19 132 4.8 17.7 0.00 0.00 0.00 60 1010.7
20260509142535 18 153 4.8 16.1 0.00 0.00 0.00 59 1010.7
20260509142034 18 246 3.2 14.5 0.00 0.00 0.00 60 1010.7
20260509141556 18 144 1.6 14.5 0.00 0.00 0.00 62 1010.6
20260509141039 18 313 3.2 12.9 0.00 0.00 0.00 62 1010.7
20260509140534 18 106 4.8 12.9 0.00 0.00 0.00 62 1010.8
20260509140100 18 167 1.6 14.5 0.00 0.00 0.00 63 1010.8
20260509135534 17 344 4.8 14.5 0.00 0.00 0.00 63 1010.8
20260509135036 17 227 3.2 12.9 0.00 0.00 0.00 63 1011.0
20260509134623 17 171 3.2 12.9 0.00 0.00 0.00 63 1011.0
20260509134037 17 328 3.2 14.5 0.00 0.00 0.00 64 1011.0
20260509133537 17 193 3.2 14.5 0.00 0.00 0.00 65 1011.0
20260509133050 17 165 4.8 12.9 0.00 0.00 0.00 65 1011.1
20260509132535 17 168 3.2 14.5 0.00 0.00 0.00 66 1011.1
20260509132038 16 0 3.2 14.5 0.00 0.00 0.00 66 1011.1
20260509131552 16 291 1.6 9.7 0.00 0.00 0.00 67 1011.1
20260509131035 16 250 1.6 8.0 0.00 0.00 0.00 68 1011.1
20260509130535 16 159 1.6 11.3 0.00 0.00 0.00 69 1011.2
20260509130047 16 155 3.2 11.3 0.00 0.00 0.00 69 1011.2
20260509125535 15 180 0.0 17.7 0.00 0.00 0.00 70 1011.2
20260509125036 15 206 4.8 17.7 0.00 0.00 0.00 70 1011.2
20260509124547 15 183 1.6 11.3 0.00 0.00 0.00 71 1011.3
20260509124034 15 200 3.2 8.0 0.00 0.00 0.00 71 1011.3
20260509123534 15 0 1.6 11.3 0.00 0.00 0.00 71 1011.3
20260509123044 15 164 3.2 11.3 0.00 0.00 0.00 72 1011.3
20260509122534 14 181 3.2 11.3 0.00 0.00 0.00 72 1011.2
20260509122035 14 178 1.6 9.7 0.00 0.00 0.00 72 1011.2
20260509121552 14 55 0.0 9.7 0.00 0.00 0.00 73 1011.2
20260509121035 14 161 1.6 11.3 0.00 0.00 0.00 73 1011.3
20260509120538 13 0 1.6 11.3 0.00 0.00 0.00 73 1011.2
20260509120049 13 71 3.2 17.7 0.00 0.00 0.00 73 1011.3
20260509115534 13 0 3.2 17.7 0.00 0.00 0.00 74 1011.4
20260509115037 13 0 4.8 17.7 0.00 0.00 0.00 74 1011.4
20260509114554 13 127 1.6 14.5 0.00 0.00 0.00 74 1011.4
20260509114035 13 167 3.2 14.5 0.00 0.00 0.00 74 1011.4
20260509113535 13 222 1.6 9.7 0.00 0.00 0.00 75 1011.3
20260509113051 12 82 3.2 9.7 0.00 0.00 0.00 76 1011.4
20260509112534 12 183 0.0 12.9 0.00 0.00 0.00 76 1011.4
20260509112034 12 112 0.0 12.9 0.00 0.00 0.00 76 1011.4
20260509111551 12 159 0.0 8.0 0.00 0.00 0.00 77 1011.4
20260509111034 11 134 0.0 6.4 0.00 0.00 0.00 77 1011.4
20260509110538 11 0 0.0 4.8 0.00 0.00 0.00 77 1011.3
20260509110050 11 0 0.0 4.8 0.00 0.00 0.00 77 1011.3
20260509105534 11 0 1.6 4.8 0.00 0.00 0.00 77 1011.2
20260509105034 11 71 0.0 0.0 0.00 0.00 0.00 76 1011.1
20260509104546 11 0 0.0 0.0 0.00 0.00 0.00 76 1011.2
20260509104034 11 0 0.0 0.0 0.00 0.00 0.00 75 1011.1
20260509103535 11 0 0.0 3.2 0.00 0.00 0.00 75 1011.2
20260509103101 11 0 0.0 4.8 0.00 0.00 0.00 75 1011.2
20260509102538 11 0 0.0 4.8 0.00 0.00 0.00 75 1011.2
20260509102038 11 75 0.0 4.8 0.00 0.00 0.00 75 1011.3
20260509101553 11 0 0.0 4.8 0.00 0.00 0.00 75 1011.2
20260509101037 11 0 1.6 4.8 0.00 0.00 0.00 74 1011.1
20260509100540 11 0 0.0 8.0 0.00 0.00 0.00 74 1011.1
20260509100046 11 0 0.0 8.0 0.00 0.00 0.00 73 1011.1
20260509095539 12 71 0.0 8.0 0.00 0.00 0.00 72 1011.0
20260509095038 12 105 0.0 6.4 0.00 0.00 0.00 73 1011.1
20260509094551 12 93 1.6 6.4 0.00 0.00 0.00 73 1011.0
20260509094038 12 90 0.0 6.4 0.00 0.00 0.00 71 1011.1
20260509093538 12 0 0.0 0.0 0.00 0.00 0.00 70 1011.1
20260509093049 12 0 0.0 3.2 0.00 0.00 0.00 71 1011.1
20260509092538 12 0 0.0 6.4 0.00 0.00 0.00 71 1011.2
20260509092038 12 67 1.6 6.4 0.00 0.00 0.00 71 1011.1
20260509091551 12 0 0.0 4.8 0.00 0.00 0.00 71 1011.0
20260509091041 12 127 0.0 4.8 0.00 0.00 0.00 70 1011.1
20260509090538 12 0 0.0 0.0 0.00 0.00 0.00 71 1011.1
20260509090050 12 0 0.0 0.0 0.00 0.00 0.00 68 1011.0
20260509085537 12 0 0.0 0.0 0.00 0.00 0.00 68 1011.1
20260509085038 12 0 0.0 0.0 0.00 0.00 0.00 68 1011.1
20260509084550 12 0 0.0 0.0 0.00 0.00 0.00 68 1011.1
20260509084038 12 0 0.0 0.0 0.00 0.00 0.00 67 1011.1
20260509083539 12 0 0.0 1.6 0.00 0.00 0.00 67 1011.1
20260509083048 13 0 0.0 4.8 0.00 0.00 0.00 66 1011.1
20260509082535 13 0 0.0 4.8 0.00 0.00 0.00 66 1011.2
20260509082038 13 208 0.0 1.6 0.00 0.00 0.00 65 1011.3
20260509081549 13 0 0.0 0.0 0.00 0.00 0.00 65 1011.4
20260509081036 13 0 0.0 1.6 0.00 0.00 0.00 65 1011.5
20260509080538 13 0 0.0 4.8 0.00 0.00 0.00 65 1011.5
20260509080047 13 0 0.0 4.8 0.00 0.00 0.00 65 1011.6
20260509075538 13 0 0.0 3.2 0.00 0.00 0.00 64 1011.6
20260509075038 13 0 0.0 4.8 0.00 0.00 0.00 65 1011.6
20260509074558 13 0 0.0 6.4 0.00 0.00 0.00 64 1011.7
20260509074037 13 0 0.0 6.4 0.00 0.00 0.00 63 1011.7
20260509073538 13 0 0.0 8.0 0.00 0.00 0.00 63 1011.7
20260509073047 13 0 0.0 8.0 0.00 0.00 0.00 63 1011.8
20260509072538 13 218 1.6 6.4 0.00 0.00 0.00 63 1011.8
20260509072039 13 0 0.0 8.0 0.00 0.00 0.00 64 1011.8
20260509071555 13 176 1.6 9.7 0.00 0.00 0.00 64 1011.8
20260509071038 12 202 1.6 9.7 0.00 0.00 0.00 64 1011.8
20260509070538 12 142 0.0 8.0 0.00 0.00 0.00 65 1011.9
20260509070053 12 145 1.6 9.7 0.00 0.00 0.00 66 1011.9
20260509065538 12 0 0.0 9.7 0.00 0.00 0.00 68 1011.9
20260509065035 12 0 0.0 0.0 0.00 0.00 0.00 70 1012.0
20260509064559 12 0 0.0 1.6 0.00 0.00 0.00 72 1012.0
20260509064038 12 0 0.0 6.4 0.00 0.00 0.00 69 1012.1
20260509063538 12 0 0.0 8.0 0.00 0.00 0.00 70 1012.0
20260509063049 12 0 0.0 8.0 0.00 0.00 0.00 70 1012.1
20260509062542 12 0 0.0 0.0 0.00 0.00 0.00 70 1012.1
20260509062042 12 0 0.0 0.0 0.00 0.00 0.00 72 1012.1
20260509061553 12 0 0.0 0.0 0.00 0.00 0.00 71 1012.1
20260509061037 12 0 0.0 0.0 0.00 0.00 0.00 70 1012.1
20260509060538 12 0 0.0 0.0 0.00 0.00 0.00 71 1012.1
20260509060049 12 0 0.0 0.0 0.00 0.00 0.00 70 1012.1
20260509055538 12 0 0.0 0.0 0.00 0.00 0.00 69 1012.1
20260509055038 12 0 0.0 0.0 0.00 0.00 0.00 69 1012.0
20260509054546 12 0 0.0 0.0 0.00 0.00 0.00 69 1012.0
20260509054038 12 0 0.0 0.0 0.00 0.00 0.00 68 1012.0
20260509053536 12 0 0.0 0.0 0.00 0.00 0.00 67 1012.0
20260509053051 12 0 0.0 0.0 0.00 0.00 0.00 67 1011.9
20260509052538 12 0 0.0 0.0 0.00 0.00 0.00 66 1012.0
20260509052037 12 0 0.0 0.0 0.00 0.00 0.00 68 1012.0
20260509051550 12 0 0.0 0.0 0.00 0.00 0.00 66 1012.0
20260509051038 12 0 0.0 0.0 0.00 0.00 0.00 67 1012.0
20260509050538 12 0 0.0 0.0 0.00 0.00 0.00 64 1012.0
20260509050048 12 0 0.0 0.0 0.00 0.00 0.00 63 1012.0
20260509045537 12 0 0.0 0.0 0.00 0.00 0.00 65 1011.9
20260509045037 13 0 0.0 0.0 0.00 0.00 0.00 65 1011.9
20260509044547 13 0 0.0 0.0 0.00 0.00 0.00 65 1011.9
20260509044038 13 0 0.0 0.0 0.00 0.00 0.00 67 1011.9
20260509043538 13 0 0.0 0.0 0.00 0.00 0.00 65 1012.0